Back to catalog

STARLINK-37776

AliveCommunicationsSSO
NORAD 69343·PAYLOAD·🇺🇸 United States

Launched Jun 3, 2026 from Vandenberg Space Force Base

Loading…

Next Passes (next 24 hours)

TLE

FreshSource: CelesTrak SupGP

Epoch: Sep 14, 2026, 22:59 UTC

1 69343C 26122Q   26257.95812500  .00116780  00000+0  36295-2 0  2576
2 69343  97.2825 286.6709 0000827  94.1648 163.2498 15.33341524    12

Track STARLINK-37776 in real time with AllMySat

Download on the App Store